[[{"header":{"parameterUnit":"m.s-1","parameterCategory":1,"la1":30.2991,"la2":30.254,"lo1":-89.0895,"lo2":-89.0444,"dy":0.0017,"dx":0.0017,"nx":28,"ny":28,"refTime":"2024-08-13T21:00:00:Z","depth":0,"parameterNumber":2,"parameterNumberName":"U-component_of_WINDS"},"data":[0,0,0,0,0,0,0,0,0,0,0,0,0,0,0,0,0,0,0,0,0,0,0,0,0,0,0,0,0,0,0,0,0,0,0,0,0,0,0,0,0,0,0,0,0,0,0,0,0,0,0,0,0,0,0,0,0,0,1.1272,1.127,0,1.1101,1.1099,1.1097,1.087,1.0866,1.0862,1.0858,1.0683,1.0682,1.0681,0,0,0,0,0,0,0,0,0,0,0,0,0,1.1402,1.1401,1.1272,1.127,1.1268,1.1101,1.1099,1.1096,1.087,1.0866,1.0861,1.0857,1.0684,1.0682,1.0681,0,0,0,0,0,0,0,0,0,0,0,0,0,1.13,1.14,1.1272,1.1135,1.1121,1.1102,1.1099,1.1096,1.0871,1.0865,1.086,1.0855,1.0684,1.0682,1.0681,1.0783,0,0,1.0675,1.0675,0,0,0,0,0,0,0,0,1.1306,1.1295,1.1157,1.1144,1.1128,1.1001,1.108,1.0991,1.0873,1.0966,1.0858,1.0852,1.0793,1.0782,1.0763,1.0775,1.0767,1.0675,1.0674,1.0673,1.0673,0,0,0,0,0,0,0,1.1313,1.1301,1.1204,1.1155,1.1138,1.1081,1.106,1.1062,1.0913,1.0957,1.094,1.0923,1.0784,1.0765,1.0757,1.0764,1.0675,1.0674,1.0673,1.0672,1.0851,1.0856,0,0,0,0,0,0,1.1341,1.1309,1.121,1.1199,1.1205,1.1084,1.106,1.1047,1.0913,1.0887,1.0928,1.0913,1.0771,1.0759,1.075,1.0861,1.0673,1.0672,1.0671,1.0845,1.0852,1.0858,0,0,0,0,0,0,1.1345,1.1334,1.1216,1.1249,1.123,1.1087,1.1075,1.1047,1.1027,1.0891,1.0863,1.0936,1.0766,1.0752,1.0776,1.0852,1.0671,1.0669,1.0838,1.0847,1.0855,1.1085,0,0,0,0,0,0,1.1349,1.1337,1.1375,1.1252,1.1229,1.1247,1.1079,1.1048,1.1025,1.1004,1.089,1.0866,1.076,1.078,1.0775,1.0846,1.0668,1.0831,1.0842,1.0853,1.107,1.1101,1.1127,0,0,0,0,0,1.1355,1.1446,1.1378,1.1367,1.1273,1.1252,1.1239,1.1115,1.1032,1.1069,1.0981,1.087,1.0844,1.0784,1.0776,1.0849,1.0826,1.0839,1.0852,1.1058,1.1095,1.1126,0,0,0,0,0,0,1.1582,1.1428,1.135,1.1405,1.1343,1.1214,1.1256,1.1158,1.1119,1.1101,1.0949,1.0925,1.0968,1.0909,1.0846,1.094,1.0818,1.083,1.0977,1.1011,1.1039,1.1054,1.0667,0,0,0,0,0,1.1639,1.1634,1.1499,1.156,1.1533,1.1401,1.1387,1.1297,1.1227,1.12,1.1113,1.105,1.1026,1.1015,1.0986,1.1059,1.1032,1.1105,1.1133,1.1157,1.117,1.1205,1.1236,1.0901,1.0901,1.0901,0,0,1.1756,1.167,1.1677,1.1604,1.1546,1.1545,1.1381,1.1386,1.1384,1.12,1.1218,1.1153,1.1071,1.1121,1.1138,1.1073,1.1256,1.1173,1.1194,1.1193,1.1221,1.1253,1.1282,1.091,1.0909,1.0907,0,0,1.1968,1.1903,1.1947,1.1892,1.1806,1.1717,1.1728,1.1612,1.1562,1.1577,1.1439,1.1434,1.1398,1.1345,1.1314,1.1506,1.1403,1.1501,1.165,1.1685,1.1712,1.1734,1.1804,1.1831,1.1514,1.1514,1.1515,0,1.2125,1.2118,1.1983,1.1997,1.1969,1.1802,1.1846,1.1798,1.1708,1.1692,1.162,1.1572,1.1505,1.154,1.1587,1.1566,1.1574,1.1515,1.1719,1.174,1.1759,1.1824,1.1851,1.1527,1.1525,1.1524,1.1523,0,1.2316,1.2313,1.2359,1.2276,1.2252,1.2282,1.215,1.2143,1.2054,1.1973,1.199,1.1904,1.1855,1.1856,1.1769,1.1879,1.1841,1.1747,1.1622,1.1806,1.1865,1.1889,1.1545,1.154,1.1537,1.1534,0,0,1.267,1.251,1.253,1.249,1.2382,1.2377,1.2398,1.235,1.2348,1.2289,1.2304,1.2277,1.2188,1.2153,1.2058,1.2089,1.2248,1.199,1.1985,1.2043,1.2365,1.244,1.2471,1.2178,1.2182,1.2185,1.2373,0,1.2864,1.2893,1.277,1.2831,1.2827,1.2667,1.2685,1.2621,1.2545,1.253,1.2444,1.2428,1.2311,1.2289,1.2313,1.2225,1.2312,1.2209,1.2191,1.2192,1.222,1.2501,1.258,1.2761,1.2395,1.2398,1.2401,0,1.3095,1.3051,1.3111,1.2999,1.2993,1.3012,1.2959,1.2946,1.2869,1.2811,1.2772,1.2663,1.2675,1.2554,1.2569,1.2502,1.2486,1.2442,1.2446,1.2442,1.2311,1.2507,1.2815,1.2844,1.2435,1.2433,1.243,0,1.3351,1.3305,1.3335,1.3306,1.3176,1.3193,1.314,1.3057,1.3036,1.2989,1.2973,1.2928,1.2904,1.2871,1.2752,1.2674,1.2782,1.265,1.2735,1.2739,1.2768,1.2768,1.3081,1.2754,1.2754,1.2753,1.2752,0,1.3583,1.3627,1.3448,1.3468,1.3512,1.337,1.3417,1.3347,1.3275,1.3278,1.3135,1.314,1.2981,1.2969,1.2875,1.2903,1.2892,1.2846,1.2821,1.2861,1.2867,1.2851,1.2836,1.276,1.2758,1.2757,1.2756,0,1.3877,1.3759,1.3782,1.3657,1.3626,1.3665,1.3557,1.3569,1.3483,1.3488,1.3481,1.3346,1.3323,1.32,1.3149,1.3086,1.3148,1.3096,1.3175,1.3159,1.3252,1.3246,1.3568,1.3603,1.3252,1.3256,1.3259,0,1.4034,1.4064,1.3942,1.3934,1.3887,1.3875,1.3853,1.3713,1.3696,1.361,1.3633,1.3599,1.3565,1.3537,1.3434,1.3394,1.3342,1.3457,1.3335,1.3374,1.3346,1.3347,1.335,1.3485,1.3489,1.3493,1.3496,0,1.4326,1.4266,1.424,1.4194,1.4172,1.4129,1.4077,1.4078,1.3923,1.3911,1.3887,1.386,1.3808,1.3776,1.3719,1.3662,1.3555,1.3534,1.3552,1.3595,1.364,1.3619,1.3249,1.3529,1.3525,1.3523,1.3521,1.352,1.4557,1.4577,1.4495,1.447,1.4416,1.4371,1.4377,1.4291,1.4269,1.4216,1.4134,1.4122,1.4042,1.3954,1.3906,1.3893,1.3831,1.3857,1.3864,1.3873,1.3894,1.364,1.3882,1.3881,1.388,1.3879,1.3878,0,1.4844,1.4783,1.4762,1.4694,1.4675,1.4574,1.451,1.4502,1.4493,1.4428,1.4397,1.4369,1.4337,1.4232,1.4189,1.42,1.4149,1.4193,1.4193,1.4182,1.3951,1.3941,1.4235,1.4235,1.4235,1.4235,1.4235,1.4235,1.4992,1.502,1.495,1.495,1.4887,1.4874,1.4847,1.4805,1.4752,1.4728,1.4701,1.4632,1.4551,1.4501,1.4467,1.4437,1.4429,1.4491,1.4445,1.4232,1.4198,1.4165,1.4155,1.4489,1.449,1.4676,1.4678,1.4679]},{"header":{"parameterUnit":"m.s-1","parameterCategory":1,"la1":30.2991,"la2":30.254,"lo1":-89.0895,"lo2":-89.0444,"dy":0.0017,"dx":0.0017,"nx":28,"ny":28,"refTime":"2024-08-13T21:00:00:Z","depth":0,"parameterNumber":3,"parameterNumberName":"V-component_of_WINDS"},"data":[0,0,0,0,0,0,0,0,0,0,0,0,0,0,0,0,0,0,0,0,0,0,0,0,0,0,0,0,0,0,0,0,0,0,0,0,0,0,0,0,0,0,0,0,0,0,0,0,0,0,0,0,0,0,0,0,0,0,-1.3234,-1.3233,0,-1.3188,-1.3188,-1.3187,-1.3111,-1.311,-1.3108,-1.3107,-1.3063,-1.3063,-1.3064,0,0,0,0,0,0,0,0,0,0,0,0,0,-1.3256,-1.3256,-1.3234,-1.3233,-1.3232,-1.3188,-1.3188,-1.3187,-1.3111,-1.311,-1.3108,-1.3106,-1.3063,-1.3063,-1.3064,0,0,0,0,0,0,0,0,0,0,0,0,0,-1.3232,-1.3256,-1.3234,-1.3189,-1.3185,-1.3189,-1.3188,-1.3187,-1.3112,-1.311,-1.3107,-1.3105,-1.3063,-1.3063,-1.3064,-1.3108,0,0,-1.3064,-1.3064,0,0,0,0,0,0,0,0,-1.3234,-1.3231,-1.3196,-1.3192,-1.3187,-1.3153,-1.318,-1.3161,-1.3112,-1.314,-1.3107,-1.3104,-1.3095,-1.3092,-1.3089,-1.3106,-1.3104,-1.3064,-1.3064,-1.3065,-1.3065,0,0,0,0,0,0,0,-1.3235,-1.3233,-1.3216,-1.3196,-1.319,-1.3172,-1.3166,-1.3176,-1.313,-1.3137,-1.3131,-1.3127,-1.3092,-1.3089,-1.3087,-1.3103,-1.3064,-1.3065,-1.3065,-1.3065,-1.3155,-1.3157,0,0,0,0,0,0,-1.3243,-1.3235,-1.3217,-1.3214,-1.3206,-1.3173,-1.3167,-1.3166,-1.313,-1.3122,-1.3129,-1.3124,-1.3089,-1.3087,-1.3085,-1.3136,-1.3065,-1.3065,-1.3065,-1.3153,-1.3156,-1.3158,0,0,0,0,0,0,-1.3244,-1.3242,-1.3219,-1.3223,-1.3219,-1.3175,-1.3175,-1.3167,-1.3163,-1.3123,-1.3115,-1.3134,-1.3088,-1.3085,-1.3103,-1.3133,-1.3065,-1.3065,-1.315,-1.3154,-1.3157,-1.3236,0,0,0,0,0,0,-1.3245,-1.3243,-1.3259,-1.3224,-1.3219,-1.3237,-1.3177,-1.3167,-1.3163,-1.3156,-1.3126,-1.3119,-1.3086,-1.3103,-1.3103,-1.3132,-1.3065,-1.3147,-1.3152,-1.3156,-1.3231,-1.3242,-1.3252,0,0,0,0,0,-1.3246,-1.3284,-1.326,-1.3259,-1.3238,-1.3239,-1.3236,-1.3197,-1.3166,-1.3182,-1.3157,-1.312,-1.3129,-1.3105,-1.3105,-1.3135,-1.3145,-1.315,-1.3155,-1.3226,-1.324,-1.3251,0,0,0,0,0,0,-1.3325,-1.3278,-1.3252,-1.3279,-1.3263,-1.3226,-1.3245,-1.3212,-1.3205,-1.3199,-1.3151,-1.3145,-1.3169,-1.3153,-1.3127,-1.3176,-1.3132,-1.3137,-1.3186,-1.3198,-1.3208,-1.3213,-1.3066,0,0,0,0,0,-1.3345,-1.3349,-1.3308,-1.3337,-1.333,-1.3289,-1.3288,-1.3259,-1.3241,-1.3234,-1.321,-1.3195,-1.3194,-1.3195,-1.3192,-1.3228,-1.3221,-1.3248,-1.3258,-1.3267,-1.3273,-1.3291,-1.3303,-1.3175,-1.3175,-1.3174,0,0,-1.3388,-1.3363,-1.3368,-1.3352,-1.3336,-1.3342,-1.3284,-1.3293,-1.3297,-1.3236,-1.3251,-1.3233,-1.3212,-1.324,-1.325,-1.3227,-1.3306,-1.3273,-1.328,-1.3281,-1.3297,-1.331,-1.332,-1.3178,-1.3177,-1.3177,0,0,-1.3469,-1.345,-1.3471,-1.3456,-1.3433,-1.3405,-1.3411,-1.3378,-1.3363,-1.3378,-1.3332,-1.3336,-1.3336,-1.3324,-1.3318,-1.3393,-1.3359,-1.3393,-1.3448,-1.3467,-1.3477,-1.3486,-1.3514,-1.3525,-1.3399,-1.3399,-1.3399,0,-1.3525,-1.3531,-1.3487,-1.3498,-1.3493,-1.3436,-1.3458,-1.3446,-1.3424,-1.3422,-1.3396,-1.3395,-1.3377,-1.3401,-1.3419,-1.3415,-1.3421,-1.3398,-1.3479,-1.3487,-1.3495,-1.3521,-1.3532,-1.3403,-1.3403,-1.3403,-1.3402,0,-1.3602,-1.3607,-1.3628,-1.3607,-1.3603,-1.362,-1.3579,-1.3581,-1.3551,-1.3527,-1.3543,-1.3519,-1.3511,-1.3514,-1.3486,-1.3534,-1.3521,-1.3488,-1.3442,-1.3512,-1.3537,-1.3546,-1.341,-1.3408,-1.3407,-1.3406,0,0,-1.3733,-1.3686,-1.3694,-1.3684,-1.3654,-1.3658,-1.3672,-1.3663,-1.3666,-1.3652,-1.3664,-1.3665,-1.3634,-1.3627,-1.3597,-1.3613,-1.3676,-1.3578,-1.3577,-1.3598,-1.3729,-1.3755,-1.3768,-1.3652,-1.3654,-1.3655,-1.3731,0,-1.3808,-1.383,-1.379,-1.3822,-1.3827,-1.3772,-1.3785,-1.3768,-1.3746,-1.3747,-1.3722,-1.3724,-1.3682,-1.3678,-1.3691,-1.3666,-1.3702,-1.3659,-1.3664,-1.3665,-1.3673,-1.378,-1.3808,-1.3881,-1.374,-1.3742,-1.3743,0,-1.39,-1.389,-1.3922,-1.389,-1.3891,-1.3903,-1.3892,-1.3893,-1.3873,-1.3855,-1.3847,-1.3811,-1.3824,-1.3779,-1.3797,-1.3769,-1.3768,-1.3756,-1.3758,-1.3758,-1.371,-1.3785,-1.3903,-1.3915,-1.3757,-1.3756,-1.3755,0,-1.3994,-1.3989,-1.4007,-1.4,-1.3963,-1.3973,-1.3958,-1.3935,-1.3933,-1.3923,-1.3921,-1.3913,-1.3909,-1.3904,-1.3868,-1.3838,-1.389,-1.3842,-1.3877,-1.3878,-1.3892,-1.3892,-1.4013,-1.3889,-1.3889,-1.3889,-1.3888,0,-1.4084,-1.4106,-1.4049,-1.4061,-1.4084,-1.4037,-1.4062,-1.4042,-1.4022,-1.403,-1.3982,-1.399,-1.394,-1.3943,-1.3914,-1.3934,-1.3932,-1.3919,-1.3912,-1.3924,-1.3926,-1.3925,-1.392,-1.3891,-1.3891,-1.389,-1.389,0,-1.4194,-1.4156,-1.4173,-1.4136,-1.4127,-1.4146,-1.4115,-1.4124,-1.4098,-1.4108,-1.4107,-1.4067,-1.4067,-1.403,-1.4023,-1.4004,-1.4037,-1.4019,-1.4043,-1.4039,-1.4077,-1.4074,-1.4202,-1.4217,-1.4082,-1.4084,-1.4085,0,-1.4254,-1.427,-1.4234,-1.4235,-1.4223,-1.4225,-1.4222,-1.4177,-1.4176,-1.4154,-1.4167,-1.4163,-1.4159,-1.4163,-1.4133,-1.4128,-1.4111,-1.4156,-1.411,-1.4123,-1.4114,-1.4114,-1.4116,-1.4167,-1.4168,-1.417,-1.4171,0,-1.4367,-1.4347,-1.4344,-1.4335,-1.4332,-1.4323,-1.431,-1.4314,-1.4265,-1.4266,-1.4266,-1.4262,-1.4255,-1.4253,-1.4242,-1.4227,-1.4192,-1.4185,-1.4193,-1.4208,-1.4222,-1.4216,-1.4072,-1.4183,-1.4182,-1.4181,-1.418,-1.418,-1.4454,-1.4466,-1.4443,-1.4441,-1.4427,-1.4417,-1.4424,-1.4398,-1.4397,-1.4388,-1.4361,-1.4366,-1.4345,-1.4327,-1.4315,-1.4319,-1.4297,-1.4308,-1.4311,-1.4315,-1.4323,-1.422,-1.4316,-1.4316,-1.4316,-1.4315,-1.4315,0,-1.4566,-1.4548,-1.4547,-1.4531,-1.453,-1.4494,-1.4479,-1.4481,-1.4485,-1.4469,-1.4465,-1.4465,-1.4463,-1.4432,-1.4427,-1.4435,-1.4419,-1.4436,-1.4436,-1.4433,-1.4343,-1.4337,-1.4449,-1.4449,-1.4449,-1.4449,-1.4449,-1.4449,-1.4623,-1.4642,-1.4619,-1.463,-1.4612,-1.4616,-1.461,-1.4601,-1.4588,-1.459,-1.4588,-1.4567,-1.4546,-1.4538,-1.4534,-1.4526,-1.4527,-1.4549,-1.4535,-1.4452,-1.4439,-1.4427,-1.4421,-1.4549,-1.455,-1.4625,-1.4626,-1.4627]}]]